Regional Weather Roundup
Issued by NWS Goodland, KS

Home | Current Version | Previous Version | Graphics & Text | Print | Product List | Glossary On
Versions: 1 2 3 4 5 6 7 8 9 10 11 12 13 14 15 16 17 18 19 20 21 22 23 24 25 26 27 28 29 30 31 32 33 34 35 36 37 38 39 40 41 42 43 44 45 46 47 48 49 50
000
ASUS43 KGLD 250059
RWRGLD

GOODLAND FORECAST AREA HOURLY WEATHER ROUNDUP
NATIONAL WEATHER SERVICE GOODLAND KS
700 PM MDT SUN MAY 24 2015

...OFFICIAL OBSERVATIONS...

CITY           SKY/WX    TMP DP  RH WIND       PRES   REMARKS
GOODLAND KS    TSTM      51  48  89 W15G35    29.84R
HILL CITY KS   CLOUDY    67  59  75 SE8       29.77S
IMPERIAL NEB   NOT AVBL
MCCOOK NEB     MOCLDY    66  58  75 SE15      29.76S
AKRON CO       CLOUDY    50  47  89 N6        29.80S
BURLINGTON CO  LGT RAIN  48  45  89 N6        29.81F
LIMON CO       CLOUDY    58  37  45 W5        29.81F
$$

...UNOFFICIAL OBSERVATIONS...

CITY           SKY/WX    TMP DP  RH WIND       PRES   REMARKS
COLBY KS       PTCLDY    64  61  88 SE10      29.80R
GOVE KS          N/A     66  32  28 MISG        N/A
LENORA KS        N/A     65  32  29 MISG        N/A
NORTON KS      MOCLDY    64  55  72 SE9       29.77S
SHARON SPRINGS   N/A     63  58  83 MISG        N/A
KIT CARSON CO    N/A     55  49  80 MISG        N/A
$$



USA.gov is the U.S. government's official web portal to all federal, state and local government web resources and services.